SR9WXM Weather Reports


Display with metric or nautical units.
time (UTC)temp
F
wind
direction
speed
MPH
gust
MPH
rain 1hr
in
rain 24hr
in
rain mn
in
humidity
%
barometer
mb
20260502212800 50 173 8.0 13.0 0.00 0.00 0.00 100
20260502212352 50 178 7.0 11.0 0.00 0.00 0.00 100
20260502211952 50 173 8.0 17.0 0.00 0.00 0.00 100
20260502211552 50 172 6.0 10.0 0.00 0.00 0.00 100
20260502211150 51 179 7.0 13.0 0.00 0.00 0.00 100
20260502210750 51 170 6.0 9.0 0.00 0.00 0.00 100
20260502210350 51 159 5.0 9.0 0.00 0.00 0.00 100
20260502205950 51 156 7.0 12.0 0.00 0.00 0.00 100
20260502205550 51 150 7.0 11.0 0.00 0.00 0.00 100
20260502205148 51 145 7.0 11.0 0.00 0.00 0.00 100
20260502204748 51 149 7.0 12.0 0.00 0.00 0.00 100
20260502204348 51 148 7.0 12.0 0.00 0.00 0.00 100
20260502203949 51 141 5.0 8.0 0.00 0.00 0.00 100
20260502203549 51 122 4.0 6.0 0.00 0.00 0.00 100
20260502203147 51 130 4.0 7.0 0.00 0.00 0.00 100
20260502202745 51 142 6.0 10.0 0.00 0.00 0.00 100
20260502202345 51 138 6.0 10.0 0.00 0.00 0.00 100
20260502201945 51 143 6.0 8.0 0.00 0.00 0.00 100
20260502201544 51 143 6.0 10.0 0.00 0.00 0.00 100
20260502201142 51 139 7.0 11.0 0.00 0.00 0.00 100
20260502200742 51 141 7.0 10.0 0.00 0.00 0.00 100
20260502200343 51 141 5.0 9.0 0.00 0.00 0.00 100
20260502195942 51 136 5.0 9.0 0.00 0.00 0.00 100
20260502195542 51 140 4.0 7.0 0.00 0.00 0.00 100
20260502195140 51 135 4.0 7.0 0.00 0.00 0.00 100
20260502194740 51 141 4.0 8.0 0.00 0.00 0.00 100
20260502194340 51 128 4.0 7.0 0.00 0.00 0.00 100
20260502193940 51 118 4.0 6.0 0.00 0.00 0.00 100
20260502193539 51 115 3.0 6.0 0.00 0.00 0.00 100
20260502193137 51 110 4.0 7.0 0.00 0.00 0.00 100
20260502192738 51 103 4.0 6.0 0.00 0.00 0.00 100
20260502192337 51 107 5.0 7.0 0.00 0.00 0.00 100
20260502191938 51 107 5.0 7.0 0.00 0.00 0.00 100
20260502191537 51 102 5.0 6.0 0.00 0.00 0.00 100
20260502191135 51 101 5.0 7.0 0.00 0.00 0.00 100
20260502190735 51 94 4.0 7.0 0.00 0.00 0.00 100
20260502190335 51 103 4.0 6.0 0.00 0.00 0.00 100
20260502185935 51 103 4.0 7.0 0.00 0.00 0.00 100
20260502185535 51 106 4.0 7.0 0.00 0.00 0.00 100
20260502185124 51 106 4.0 6.0 0.00 0.00 0.00 100
20260502184724 51 106 3.0 6.0 0.00 0.00 0.00 100
20260502184324 51 105 3.0 5.0 0.00 0.00 0.00 100
20260502183924 51 94 2.0 4.0 0.00 0.00 0.00 100
20260502183524 51 94 2.0 4.0 0.00 0.00 0.00 100
20260502183122 50 96 2.0 4.0 0.00 0.00 0.00 100
20260502182722 50 94 2.0 4.0 0.00 0.00 0.00 100
20260502182322 50 100 3.0 6.0 0.00 0.00 0.00 100
20260502181921 50 109 2.0 4.0 0.00 0.00 0.00 100
20260502181619 50 104 3.0 6.0 0.00 0.00 0.00 100
20260502181523 50 104 3.0 6.0 0.00 0.00 0.00 100
20260502181119 50 86 3.0 5.0 0.00 0.00 0.00 100
20260502180719 51 82 1.0 4.0 0.00 0.00 0.00 100
20260502180320 51 83 1.0 3.0 0.00 0.00 0.00 100
20260502170312 56 73 2.0 3.0 0.00 0.00 0.00 100
20260502164310 57 77 2.0 4.0 0.00 0.00 0.00 100
20260502163910 57 64 2.0 5.0 0.00 0.00 0.00 100
20260502163548 57 79 1.0 2.0 0.00 0.00 0.00 100
20260502163510 57 79 1.0 2.0 0.00 0.00 0.00 100
20260502163108 57 64 2.0 4.0 0.00 0.00 0.00 100
20260502162708 58 68 2.0 4.0 0.00 0.00 0.00 100
20260502162308 58 70 2.0 4.0 0.00 0.00 0.00 100
20260502161906 58 74 1.0 2.0 0.00 0.00 0.00 100
20260502161458 58 63 2.0 5.0 0.00 0.00 0.00 100
20260502161057 58 65 2.0 4.0 0.00 0.00 0.00 100
20260502160657 59 70 0.0 4.0 0.00 0.00 0.00 100
20260502160256 59 47 3.0 8.0 0.00 0.00 0.00 100
20260502152252 59 60 1.0 6.0 0.00 0.00 0.00 100
20260502151851 59 70 2.0 6.0 0.00 0.00 0.00 100
20260502151451 60 57 2.0 7.0 0.00 0.00 0.00 100
20260502151049 60 47 2.0 4.0 0.00 0.00 0.00 100
20260502150649 60 75 3.0 8.0 0.00 0.00 0.00 100
20260502150250 60 69 3.0 5.0 0.00 0.00 0.00 100
20260502130630 59 92 4.0 7.0 0.00 0.00 0.00 100
20260502130230 59 74 4.0 11.0 0.00 0.00 0.00 100
20260502123430 58 27 4.0 8.0 0.00 0.00 0.00 100
20260502123027 59 42 7.0 9.0 0.00 0.00 0.00 100
20260502122627 58 64 6.0 10.0 0.00 0.00 0.00 100
20260502122228 58 90 5.0 8.0 0.00 0.00 0.00 100
20260502121827 58 94 5.0 8.0 0.00 0.00 0.00 100
20260502121427 58 82 6.0 10.0 0.00 0.00 0.00 100
20260502121025 59 78 5.0 9.0 0.00 0.00 0.00 100
20260502120623 60 84 6.0 9.0 0.00 0.00 0.00 100
20260502120223 60 70 4.0 8.0 0.00 0.00 0.00 100
20260502115823 59 76 5.0 11.0 0.00 0.00 0.00 100
20260502115423 58 99 2.0 6.0 0.00 0.00 0.00 100
20260502115021 58 48 4.0 9.0 0.00 0.00 0.00 100
20260502114621 58 107 7.0 12.0 0.00 0.00 0.00 100
20260502114221 58 42 3.0 7.0 0.00 0.00 0.00 100
20260502113821 58 93 4.0 8.0 0.00 0.00 0.00 100
20260502113421 58 89 4.0 10.0 0.00 0.00 0.00 100
20260502113019 58 100 7.0 10.0 0.00 0.00 0.00 100
20260502112619 58 114 3.0 6.0 0.00 0.00 0.00 100
20260502112219 57 73 5.0 10.0 0.00 0.00 0.00 100
20260502111819 57 88 3.0 7.0 0.00 0.00 0.00 100
20260502111419 57 118 5.0 8.0 0.00 0.00 0.00 100
20260502111017 57 76 4.0 6.0 0.00 0.00 0.00 100
20260502110617 58 96 8.0 13.0 0.00 0.00 0.00 100
20260502110210 59 85 5.0 10.0 0.00 0.00 0.00 100
20260502105810 58 73 3.0 8.0 0.00 0.00 0.00 100
20260502105410 58 69 4.0 8.0 0.00 0.00 0.00 100
20260502105008 57 71 4.0 8.0 0.00 0.00 0.00 100
20260502104608 57 77 6.0 10.0 0.00 0.00 0.00 100
20260502104207 57 71 6.0 9.0 0.00 0.00 0.00 100
20260502103807 57 88 3.0 8.0 0.00 0.00 0.00 100
20260502103407 57 98 2.0 8.0 0.00 0.00 0.00 100
20260502103005 57 55 6.0 11.0 0.00 0.00 0.00 100
20260502102605 57 60 5.0 8.0 0.00 0.00 0.00 100
20260502102205 56 100 2.0 6.0 0.00 0.00 0.00 100
20260502101805 55 62 5.0 12.0 0.00 0.00 0.00 100
20260502101405 55 119 7.0 10.0 0.00 0.00 0.00 100
20260502101003 56 80 4.0 8.0 0.00 0.00 0.00 100
20260502100603 56 97 7.0 9.0 0.00 0.00 0.00 100
20260502100202 56 95 3.0 8.0 0.00 0.00 0.00 100
20260502091357 55 90 4.0 8.0 0.00 0.00 0.00 100
20260502090955 55 77 4.0 9.0 0.00 0.00 0.00 100
20260502090556 55 106 4.0 6.0 0.00 0.00 0.00 100
20260502090156 55 74 4.0 9.0 0.00 0.00 0.00 100
20260502071333 53 88 5.0 8.0 0.00 0.00 0.00 100
20260502070931 52 80 4.0 7.0 0.00 0.00 0.00 100
20260502070531 52 73 4.0 6.0 0.00 0.00 0.00 100
20260502070131 52 57 4.0 8.0 0.00 0.00 0.00 100
20260502065731 52 73 5.0 13.0 0.00 0.00 0.00 100
20260502065332 52 86 4.0 8.0 0.00 0.00 0.00 100
20260502064929 52 77 4.0 7.0 0.00 0.00 0.00 100
20260502064529 52 69 4.0 7.0 0.00 0.00 0.00 100
20260502064129 52 73 5.0 8.0 0.00 0.00 0.00 100
20260502063729 51 76 3.0 6.0 0.00 0.00 0.00 100
20260502063329 51 64 4.0 8.0 0.00 0.00 0.00 100
20260502062927 51 66 4.0 8.0 0.00 0.00 0.00 100
20260502062527 51 82 4.0 8.0 0.00 0.00 0.00 100
20260502062127 51 75 6.0 10.0 0.00 0.00 0.00 100
20260502061727 51 66 4.0 8.0 0.00 0.00 0.00 100
20260502061327 51 62 3.0 8.0 0.00 0.00 0.00 100
20260502060925 51 63 4.0 8.0 0.00 0.00 0.00 100
20260502060525 51 70 4.0 8.0 0.00 0.00 0.00 100
20260502060125 51 67 4.0 7.0 0.00 0.00 0.00 100
20260502055725 51 58 4.0 6.0 0.00 0.00 0.00 100
20260502055316 51 54 4.0 5.0 0.00 0.00 0.00 100
20260502054914 51 76 3.0 7.0 0.00 0.00 0.00 100
20260502054514 50 62 3.0 6.0 0.00 0.00 0.00 100
20260502054114 50 55 5.0 8.0 0.00 0.00 0.00 100
20260502053713 50 65 4.0 8.0 0.00 0.00 0.00 100
20260502053313 50 75 4.0 9.0 0.00 0.00 0.00 100
20260502052911 51 54 3.0 6.0 0.00 0.00 0.00 100
20260502052511 51 76 3.0 8.0 0.00 0.00 0.00 100
20260502052111 50 64 3.0 5.0 0.00 0.00 0.00 100
20260502051711 50 56 3.0 4.0 0.00 0.00 0.00 100
20260502051311 50 60 3.0 7.0 0.00 0.00 0.00 100
20260502050909 50 59 2.0 4.0 0.00 0.00 0.00 100
20260502050509 49 68 4.0 7.0 0.00 0.00 0.00 100
20260502050109 49 55 3.0 4.0 0.00 0.00 0.00 100
20260502045709 49 64 4.0 7.0 0.00 0.00 0.00 100
20260502045308 49 47 5.0 8.0 0.00 0.00 0.00 100
20260502044906 49 65 4.0 6.0 0.00 0.00 0.00 100
20260502044506 49 58 3.0 6.0 0.00 0.00 0.00 100
20260502044106 49 71 3.0 5.0 0.00 0.00 0.00 100
20260502043706 49 62 2.0 4.0 0.00 0.00 0.00 100
20260502043306 49 66 3.0 6.0 0.00 0.00 0.00 100
20260502042904 48 68 3.0 6.0 0.00 0.00 0.00 100
20260502042504 48 52 3.0 6.0 0.00 0.00 0.00 100
20260502042104 48 60 2.0 4.0 0.00 0.00 0.00 100
20260502041704 48 58 1.0 4.0 0.00 0.00 0.00 100
20260502041303 47 59 2.0 4.0 0.00 0.00 0.00 100
20260502040901 47 56 1.0 2.0 0.00 0.00 0.00 100
20260502040502 47 56 1.0 2.0 0.00 0.00 0.00 100
20260502035702 46 56 1.0 2.0 0.00 0.00 0.00 100
20260502035302 46 53 1.0 2.0 0.00 0.00 0.00 100
20260502034859 46 56 2.0 2.0 0.00 0.00 0.00 100
20260502034457 46 56 2.0 3.0 0.00 0.00 0.00 100
20260502034057 45 59 2.0 2.0 0.00 0.00 0.00 100
20260502033657 45 59 2.0 3.0 0.00 0.00 0.00 100
20260502033257 45 56 2.0 2.0 0.00 0.00 0.00 100
20260502032855 45 56 2.0 2.0 0.00 0.00 0.00 100
20260502032455 45 56 2.0 3.0 0.00 0.00 0.00 100
20260502032055 45 56 2.0 2.0 0.00 0.00 0.00 100
20260502031646 45 59 2.0 3.0 0.00 0.00 0.00 100
20260502031246 45 59 1.0 1.0 0.00 0.00 0.00 100
20260502030844 45 56 1.0 2.0 0.00 0.00 0.00 100
20260502030443 45 59 2.0 2.0 0.00 0.00 0.00 100
20260502030043 45 57 1.0 2.0 0.00 0.00 0.00 100
20260502025643 45 56 1.0 1.0 0.00 0.00 0.00 100
20260502025243 45 59 1.0 1.0 0.00 0.00 0.00 100
20260502024842 45 59 0.0 1.0 0.00 0.00 0.00 100
20260502024441 45 59 1.0 2.0 0.00 0.00 0.00 100
20260502024041 44 55 1.0 3.0 0.00 0.00 0.00 100
20260502023641 45 33 1.0 2.0 0.00 0.00 0.00 100
20260502023241 45 64 1.0 3.0 0.00 0.00 0.00 100
20260502022839 45 59 0.0 2.0 0.00 0.00 0.00 100
20260502022438 45 37 2.0 3.0 0.00 0.00 0.00 100
20260502022038 45 50 1.0 3.0 0.00 0.00 0.00 100
20260502021639 45 56 1.0 2.0 0.00 0.00 0.00 100
20260502021239 45 59 1.0 2.0 0.00 0.00 0.00 100
20260502020837 45 59 1.0 3.0 0.00 0.00 0.00 100
20260502020436 45 59 1.0 2.0 0.00 0.00 0.00 100
20260502020036 44 57 1.0 2.0 0.00 0.00 0.00 100
20260502015636 44 57 0.0 0.0 0.00 0.00 0.00 100
20260502015236 45 59 0.0 1.0 0.00 0.00 0.00 100
20260502014834 45 57 0.0 1.0 0.00 0.00 0.00 100
20260502014434 45 57 0.0 1.0 0.00 0.00 0.00 100
20260502014034 44 59 1.0 1.0 0.00 0.00 0.00 100
20260502013634 44 57 0.0 0.0 0.00 0.00 0.00 100
20260502013234 44 56 0.0 0.0 0.00 0.00 0.00 100
20260502012832 44 57 0.0 0.0 0.00 0.00 0.00 100
20260502012432 44 56 0.0 0.0 0.00 0.00 0.00 100
20260502012031 44 59 0.0 0.0 0.00 0.00 0.00 100
20260502011632 44 56 0.0 0.0 0.00 0.00 0.00 100
20260502011232 44 56 0.0 1.0 0.00 0.00 0.00 100
20260502010830 44 59 0.0 0.0 0.00 0.00 0.00 100
20260502010430 44 57 0.0 0.0 0.00 0.00 0.00 100
20260502010030 44 56 0.0 0.0 0.00 0.00 0.00 100
20260502005630 44 59 0.0 1.0 0.00 0.00 0.00 100
20260502005232 44 57 1.0 1.0 0.00 0.00 0.00 100
20260502004828 44 59 0.0 1.0 0.00 0.00 0.00 100
20260502004428 44 57 0.0 0.0 0.00 0.00 0.00 100
20260502004021 44 57 0.0 1.0 0.00 0.00 0.00 100
20260502003620 44 59 1.0 2.0 0.00 0.00 0.00 100
20260502003220 44 70 1.0 3.0 0.00 0.00 0.00 100
20260502002819 44 79 1.0 2.0 0.00 0.00 0.00 100
20260502002418 44 81 1.0 3.0 0.00 0.00 0.00 100
20260502002018 44 73 1.0 2.0 0.00 0.00 0.00 100
20260502001618 45 68 1.0 3.0 0.00 0.00 0.00 100
20260502001218 45 60 1.0 1.0 0.00 0.00 0.00 100
20260502000816 45 63 2.0 3.0 0.00 0.00 0.00 100
20260502000417 44 49 2.0 3.0 0.00 0.00 0.00 100
20260502000016 44 55 1.0 2.0 0.00 0.00 0.00 100
20260501235616 45 46 2.0 3.0 0.00 0.00 0.00 100
20260501235216 45 67 2.0 3.0 0.00 0.00 0.00 100
20260501234814 44 74 2.0 2.0 0.00 0.00 0.00 100
20260501234414 44 77 1.0 2.0 0.00 0.00 0.00 100
20260501234014 45 79 1.0 2.0 0.00 0.00 0.00 100
20260501233612 45 77 2.0 4.0 0.00 0.00 0.00 100
20260501233212 45 73 1.0 2.0 0.00 0.00 0.00 100
20260501232810 45 45 1.0 2.0 0.00 0.00 0.00 100
20260501232410 45 45 1.0 2.0 0.00 0.00 0.00 100
20260501232010 45 45 1.0 2.0 0.00 0.00 0.00 100
20260501231610 46 48 2.0 3.0 0.00 0.00 0.00 100
20260501231209 46 75 1.0 2.0 0.00 0.00 0.00 100
20260501230807 46 51 2.0 4.0 0.00 0.00 0.00 100
20260501230407 46 54 3.0 7.0 0.00 0.00 0.00 100
20260501230007 46 52 2.0 4.0 0.00 0.00 0.00 100
20260501225608 45 42 2.0 3.0 0.00 0.00 0.00 100
20260501225208 45 51 2.0 5.0 0.00 0.00 0.00 100
20260501224806 45 58 1.0 4.0 0.00 0.00 0.00 100
20260501224406 45 70 1.0 1.0 0.00 0.00 0.00 100
20260501224005 45 85 1.0 1.0 0.00 0.00 0.00 100
20260501223605 46 57 1.0 2.0 0.00 0.00 0.00 100
20260501223205 46 38 2.0 4.0 0.00 0.00 0.00 100
20260501222804 46 45 2.0 3.0 0.00 0.00 0.00 100
20260501222403 46 58 2.0 4.0 0.00 0.00 0.00 100
20260501222003 46 52 2.0 5.0 0.00 0.00 0.00 100
20260501221603 45 53 2.0 4.0 0.00 0.00 0.00 100
20260501221203 45 62 2.0 3.0 0.00 0.00 0.00 100
20260501220752 46 60 2.0 3.0 0.00 0.00 0.00 100
20260501220352 46 69 1.0 2.0 0.00 0.00 0.00 100
20260501215951 45 67 2.0 3.0 0.00 0.00 0.00 100
20260501215551 45 50 2.0 4.0 0.00 0.00 0.00 100
20260501215151 45 69 1.0 2.0 0.00 0.00 0.00 100
20260501214749 45 51 1.0 2.0 0.00 0.00 0.00 100
20260501214350 45 80 1.0 1.0 0.00 0.00 0.00 100
20260501213950 45 69 2.0 6.0 0.00 0.00 0.00 100
20260501213549 45 74 1.0 3.0 0.00 0.00 0.00 100
20260501213149 45 72 2.0 3.0 0.00 0.00 0.00 100